El Centro, CA

12:46 PM PDT on April 25, 2017 (GMT -0700)
El Centro Naval Air Facility

Weather History for KNJK - June, 2013

Change the Weather History Date:

Monday, June 17, 2013

  Actual Average Record
Temperature  
Mean Temperature 89 °F -  
Max Temperature 107 °F 99 °F 114 °F (2015)
Min Temperature 71 °F 72 °F 66 °F (1998)
Cooling Degree Days 24    
Growing Degree Days 39 (Base 50)    
Moisture  
Dew Point 31 °F    
Average Humidity 14    
Maximum Humidity 27    
Minimum Humidity 5    
Precipitation  
Precipitation 0.00 in - - ()
Sea Level Pressure  
Sea Level Pressure 29.80 in    
Wind  
Wind Speed 3 mph (WNW)    
Max Wind Speed 10 mph    
Max Gust Speed -    
Visibility 10 miles    
Events      
Averages and records for this station are not official NWS values.
T = Trace of Precipitation, MM = Missing Value Source: NWS Daily Summary

Daily Weather History Graph

Daily Weather History Graph

Search for Another Location

Airport or City:

Trip Planner

Search our weather history database for the weather conditions in past years. The results will help you decide how hot, cold, wet, or windy it might be!

Date:

Astronomy

Jun. 17, 2013 Rise Set
Actual Time 5:34 AM PDT 7:53 PM PDT
Civil Twilight 5:05 AM PDT 8:21 PM PDT
Nautical Twilight 4:30 AM PDT 8:56 PM PDT
Astronomical Twilight 3:52 AM PDT 9:35 PM PDT
Moon 1:51 PM PDT (6/17) 12:55 AM PDT (6/17)
Length of Visible Light 15h 16m
Length of Day
14h 18m
First Quarter, 61% of the Moon is Illuminated
Jun 17
First Quarter
Jun 23
Full
Jun 29
Last Quarter
Jul 8
New
Jul 15
First Quarter

Hourly Weather History & Observations

Time (PDT) Temp. Dew Point Humidity Pressure Visibility Wind Dir Wind Speed Gust Speed Precip Events Conditions
12:56 AM 80.1 °F 35.1 °F 20% 29.82 in 10.0 mi North - - N/A   Clear
1:56 AM 77.0 °F 34.0 °F 21% 29.81 in 10.0 mi North - - N/A   Clear
2:56 AM 71.1 °F 35.1 °F 27% 29.82 in 10.0 mi North - - N/A   Clear
3:56 AM 75.0 °F 28.9 °F 18% 29.81 in 10.0 mi North - - N/A   Clear
4:56 AM 71.1 °F 35.1 °F 27% 29.82 in 10.0 mi North - - N/A   Clear
5:56 AM 72.0 °F 30.0 °F 21% 29.83 in 10.0 mi Calm Calm - N/A   Clear
6:56 AM 79.0 °F 30.9 °F 17% 29.84 in 10.0 mi Calm Calm - N/A   Clear
7:56 AM 82.9 °F 33.1 °F 17% 29.86 in 10.0 mi Calm Calm - N/A   Clear
8:56 AM 88.0 °F 32.0 °F 14% 29.87 in 10.0 mi Calm Calm - N/A   Clear
9:56 AM 91.9 °F 39.9 °F 16% 29.87 in 10.0 mi Variable 3.5 mph - N/A   Clear
10:56 AM 93.9 °F 39.9 °F 15% 29.86 in 10.0 mi Variable 3.5 mph - N/A   Clear
11:56 AM 97.0 °F 36.0 °F 12% 29.85 in 10.0 mi Calm Calm - N/A   Clear
12:56 PM 100.0 °F 23.0 °F 6% 29.83 in 10.0 mi ESE 5.8 mph - N/A   Clear
2:56 PM 104.0 °F 23.0 °F 6% 29.78 in 10.0 mi Variable 3.5 mph - N/A   Clear
3:56 PM 106.0 °F 23.0 °F 5% 29.75 in 10.0 mi Variable 3.5 mph - N/A   Clear
4:56 PM 107.1 °F 26.1 °F 6% 29.73 in 10.0 mi NW 4.6 mph - N/A   Clear
5:56 PM 105.1 °F 28.0 °F 7% 29.73 in 10.0 mi Variable 6.9 mph - N/A   Clear
6:56 PM 100.0 °F 30.9 °F 9% 29.73 in 6.0 mi Variable 6.9 mph - N/A   Haze
7:56 PM 93.9 °F 32.0 °F 11% 29.73 in 10.0 mi WNW 6.9 mph - N/A   Clear
8:56 PM 91.9 °F 27.0 °F 10% 29.75 in 10.0 mi WSW 10.4 mph - N/A   Clear
9:56 PM 90.0 °F 28.0 °F 11% 29.76 in 10.0 mi Variable 6.9 mph - N/A   Clear
10:56 PM 87.1 °F 30.9 °F 13% 29.76 in 10.0 mi NW 10.4 mph - N/A   Clear
11:56 PM 86.0 °F 30.0 °F 13% 29.75 in 10.0 mi North - - N/A   Clear